Regional Weather Roundup
Issued by NWS

Home | Current Version | Previous Version | Text Only | Print | Product List | Glossary On
Versions: 1 2 3 4 5 6 7 8 9 10 11 12 13 14 15 16 17 18 19 20 21 22 23 24 25 26 27 28 29 30 31 32 33 34 35 36 37 38 39 40 41 42 43 44 45 46 47 48 49 50
000
ASCA44 KEWX 041820
RWRMX

LATIN AMERICA AND CARIBBEAN REGIONAL WEATHER ROUNDUP
NATIONAL WEATHER SERVICE AUSTIN/SAN ANTONIO TX
100 PM CDT TUE AUG 04 2015

NOTE: "FAIR" INDICATED FEW OR NO CLOUDS BELOW 12,000 FEET WITH NO
SIGNIFICANT WEATHER AND/OR OBSTRUCTIONS TO VISIBILITY.

BAJA CALIFORNIA

CITY           SKY/WX    TMP DP  RH WIND       PRES   REMARKS
LORETO         MOSUNNY   91  82  75 E8        29.84  HX 114
LA PAZ         MOSUNNY   93  70  46 CALM      29.88S HX  99
MEXICALI       SUNNY     99  57  25 W2        29.83R HX  97
S.J. DEL CABO  MOSUNNY   95  68  41 NW5       29.87F HX  99
TIJUANA        SUNNY     79  61  53 W14       29.96R

NORTHWESTERN MEXICO

CITY           SKY/WX    TMP DP  RH WIND       PRES   REMARKS
CULIACAN       MOSUNNY   90  77  66 CALM      29.90F HX 102
DURANGO        MOSUNNY   77  57  50 E2        30.25F
GUAYMAS        MOSUNNY   95  81  63 CALM      29.82S HX 115
HERMOSILLO     MOSUNNY   95  73  49 CALM      29.91F HX 105
CD. JUAREZ     MOSUNNY   90  59  35 CALM      30.05F
LOS MOCHIS     PTSUNNY   90  73  58 SE10      29.88F HX  98
OBREGON        MOSUNNY   93  73  52 E8        29.85S HX 102

NORTHEASTERN MEXICO

CITY           SKY/WX    TMP DP  RH WIND       PRES   REMARKS
CHIHUAHUA      MOSUNNY   81  55  41 CALM      30.16F
MATAMOROS      PTSUNNY   95  77  55 SE14      29.95F HX 109
MONCLOVA         N/A    N/A N/A N/A MISG        N/A
MONTERREY      SUNNY     90  64  43 SE9       29.93F HX  91
NUEVO LAREDO   SUNNY     95  70  43 CALM      29.92F HX 101
PIEDRAS NEGRAS MOSUNNY   90  75  62 SE7       29.95  HX 100
REYNOSA        MOSUNNY   95  66  38 S9G21     29.91F HX  98
SALTILLO       MOSUNNY   88  68  51 N7        30.18F HX  91
TORREON        MOSUNNY   90  59  35 E9        30.08F
CD. VICTORIA   MOSUNNY   91  61  35 S20       29.94F HX  91

WESTERN MEXICO

CITY           SKY/WX    TMP DP  RH WIND       PRES   REMARKS
AGUASCALIENTES MOSUNNY   73  55  53 SE3       30.28F
COLIMA         MOSUNNY   86  73  66 E12       30.00R HX  93
DEL BAJIO      MOSUNNY   75  59  57 S8        30.30F
GUADALAJARA      N/A    N/A N/A N/A MISG        N/A
MANZANILLO     MOSUNNY   91  79  66 S6        29.82R HX 107
MAZATLAN       PTSUNNY   88  75  66 W8        29.85F HX  97
P. VALLARTA    SUNNY     88  75  66 S6        29.85F HX  97
URUAPAN        MOSUNNY   77  63  61 S8        30.18S
ZACATECAS      SUNNY     73  52  46 CALM      30.31F

CENTRAL MEXICO

CITY           SKY/WX    TMP DP  RH WIND       PRES   REMARKS
CUERNAVACA     PTSUNNY   81  54  39 CALM      30.14F
MEXICO CITY    MOSUNNY   72  50  46 N6        30.34F
MORELIA        MOSUNNY   75  59  57 CALM      30.24F
POZA RICA      PTSUNNY   95  73  49 E8        29.96F HX 105
PUEBLA         MOSUNNY   72  52  49 S7        30.34F
QUERETARO      MOSUNNY   73  57  56 SE3       30.31F
S. LUIS POTOSI MOSUNNY   75  52  43 CALM      30.27F
TAMPICO        MOSUNNY   90  72  55 SE17      29.96S HX  96
TOLUCA         PTSUNNY   66  52  59 NW7       30.40F

SOUTHERN MEXICO

CITY           SKY/WX    TMP DP  RH WIND       PRES   REMARKS
ACAPULCO       MOSUNNY   90  73  58 SW7       29.83F HX  98
B. DE HUATULCO PTSUNNY   93  77  59 S12       29.91F HX 107
OAXACA         PTSUNNY   77  55  47 S8        30.19F
P. ESCONDIDO   PTSUNNY   88  73  62 SW9       29.93F HX  96
VERACRUZ       PTSUNNY   90  73  58 E5        29.94F HX  98
ZIHUATANEJO    MOSUNNY   91  79  66 SW12      29.84F HX 107

YUCATAN PENINSULA

CITY           SKY/WX    TMP DP  RH WIND       PRES   REMARKS
CAMPECHE       MOSUNNY   91  72  52 E16       29.93F HX  98
CANCUN         PTSUNNY   90  77  66 NE14      30.02F HX 102
CHETUMAL       MOSUNNY   90  79  70 E7        29.97F HX 105
CD. DEL CARMEN MOSUNNY   88  73  62 E12       29.93F HX  96
COZUMEL        PTSUNNY   88  72  58 E13       30.01F HX  94
MERIDA         PTSUNNY   91  72  52 E7        29.97F HX  98
MINATITLAN     MOSUNNY   86  77  74 N14       29.86F HX  97
TAPACHULA      MOSUNNY   91  77  62 CALM      29.83F HX 105
TUX. GUTIERREZ MOSUNNY   90  64  43 W5        29.92F HX  91
VILLAHERMOSA   MOSUNNY   93  70  46 E14       29.91F HX  99

CENTRAL AMERICA

CITY           SKY/WX    TMP DP  RH WIND       PRES   REMARKS
BELIZE CITY    MOSUNNY   90  75  62 E10       29.96F HX 100
MANAGUA        PTCLDY    91  68  46 E16       29.80F HX  95

CARIBBEAN

CITY           SKY/WX    TMP DP  RH WIND       PRES   REMARKS
ARUBA          MOSUNNY   90  81  74 E25       29.86F HX 108
CURACAO        MOSUNNY   90  75  62 E18       29.92F HX 100
KINGSTON       MOSUNNY   93  73  52 SE25      29.92F HX 102
NASSAU         PTSUNNY   84  79  84 SE3       30.09F HX  96
SAN JUAN       MOSUNNY   88  77  70 NE18      30.05F HX 100
SANTO DOMINGO  PTSUNNY   91  75  59 SE10      30.06S HX 102
ST. CROIX      MOSUNNY   88  73  62 SE16      30.04  HX  96
ST. KITTS      MOSUNNY   90  70  51 E16       30.03S HX  95
ST. MAARTEN    MOSUNNY   88  72  58 E14       30.03S HX  94
ST. THOMAS     PTSUNNY   91  73  55 NE18      30.03F HX 100

$$



USA.gov is the U.S. government's official web portal to all federal, state and local government web resources and services.